Knoxville, AR

10:31 AM CDT on September 27, 2016 (GMT -0500)
MesoWest | | Change Station

Elev 394 ft 35.38 °N, 93.37 °W | Updated 2 hours ago

Clear
Clear
49.0 °F
Feels Like 49.0 °F
N
0.0
Wind Variable Wind from North
Gusts 0.0 mph

Today
High -- | Low -- °F
--% Chance of Precip.
Yesterday
High -- | Low -- °F
Precip. -- in
Pressure 30.11 in
Visibility 10.0 miles
Clouds Clear
Dew Point Not available.
Humidity Not available.
Rainfall in
Snow Depth Not available.
7:05 AM 7:02 PM
Waning Crescent, 11% visible
METAR KRUE 271453Z AUTO VRB03KT 10SM CLR 17/12 A3012 RMK AO2 SLP194 T01720117 51003
Pressure 30.11 in
Visibility 10.0 miles
Clouds Clear
Dew Point Not available.
Humidity Not available.
Rainfall in
Snow Depth Not available.
7:05 AM 7:02 PM
Waning Crescent, 11% visible
METAR KRUE 271453Z AUTO VRB03KT 10SM CLR 17/12 A3012 RMK AO2 SLP194 T01720117 51003

10-Day Weather Forecast

Almanac

Astronomy

Sep. 27, 2016 Rise Set
Actual Time
Civil Twilight
Nautical Twilight
Astronomical Twilight
Moon
Length of Visible Light
Length of Day
Tomorrow will be .
, % of the Moon is Illuminated

Today's Extremes

State Highs State Lows

Community

WunderPhotos

Upload Photos

1,942,110 photos uploaded!

WunderBlog® & News

Nearby

Air Quality

  Air Quality AQ Index Pollutant
Not available.

Snow Depth

Station Depth Elevation

Earthquake Activity

City Distance Mag. Time & Date
Minimum magnitude displayed is 2.5.

Coastal Water Temperatures

Place Temperature

Stations

Nearby Weather Stations

Station Location Temp. Windchill Dew Point Humidity Wind Precip. Elev Updated Type
                   

Watches & Warnings

There are currently no watches in effect.